SOMP2
1 42701U 98067LJ 18284.81853807 .00056624 00000-0 33713-3 0 9990
2 42701 51.6337 117.8079 0002167 294.8333 65.2442 15.77384204 80352
PHOENIX
1 42706U 98067LP 18284.79346586 .00037726 00000-0 25684-3 0 9993
2 42706 51.6320 119.9159 0001485 229.6076 130.4793 15.74499888 80247
X-CubeSat
1 42707U 98067LQ 18284.77582328 .00073083 00000-0 37346-3 0 9992
2 42707 51.6294 114.3795 0002329 248.1176 111.9578 15.80669334 80302
qbee
1 42708U 98067LR 18284.81159493 .00063347 00000-0 35382-3 0 9991
2 42708 51.6294 116.2283 0001456 232.1941 127.8928 15.78769447 80240
ZA-AeroSat
1 42713U 98067LU 18284.80085847 .00037263 00000-0 27066-3 0 9995
2 42713 51.6319 123.7081 0002326 229.0245 131.0553 15.72991868 79856
LINK
1 42714U 98067LV 18265.92001965 .06744984 12188-4 74906-3 0 9997
2 42714 051.6396 192.6696 0007557 179.7176 180.2695 16.36256502077350
UPSat
1 42716U 98067LX 18284.75763532 .00217164 29166-4 59087-3 0 9992
2 42716 51.6256 104.3881 0004497 277.2094 82.8402 15.93726467 80234
SpaceCube
1 42717U 98067LY 18284.78497732 .00058561 00000-0 32953-3 0 9991
2 42717 51.6252 116.7348 0001567 298.9276 61.1568 15.78635395 79315
Hoopoe
1 42718U 98067LZ 18284.76889740 .00104894 00000-0 42960-3 0 9994
2 42718 51.6259 110.5639 0002787 267.0650 93.0034 15.85238925 79392
NJUST-1
1 42722U 98067MB 18284.81679028 .00031138 00000-0 24111-3 0 9999
2 42722 51.6324 126.1068 0003664 302.9039 57.1607 15.71565930 78899
UNSW-EC0
1 42723U 98067MC 18284.72670358 .00147127 00000-0 51576-3 0 9998
2 42723 51.6359 109.6493 0004065 283.2648 76.7903 15.88273645 79084
LO-90
1 42725U 98067ME 18284.75729052 .00057164 00000-0 35942-3 0 9999
2 42725 51.6375 120.9887 0001947 293.5432 151.7172 15.76144460 78864
nSIGHT1
1 42726U 98067MF 18284.84616360 .00015289 00000-0 16571-3 0 9996
2 42726 51.6369 138.4419 0004046 309.8708 50.1930 15.63751329 78647
SNUSAT 1B
1 42727U 98067MG 18284.82003340 .00048627 00000-0 30810-3 0 9997
2 42727 51.6306 120.7614 0004899 267.2134 92.8305 15.76025445 78833
QBITO
1 42728U 98067MH 18284.77535287 .00065397 00000-0 35480-3 0 9993
2 42728 51.6327 116.8344 0002060 272.9320 87.1446 15.79400184 78722
Aalto-2
1 42729U 98067MJ 18284.78523378 .00070406 00000-0 36793-3 0 9998
2 42729 51.6277 116.0285 0001849 264.8537 95.2253 15.80195502 78742
SUSat
1 42730U 98067MK 18284.80823602 .00052231 00000-0 31732-3 0 9990
2 42730 51.6323 119.2295 0001677 278.8091 81.2719 15.76962404 78695
i-INSPIRE II
1 42731U 98067ML 18284.72118635 .00158909 20259-4 53299-3 0 9998
2 42731 51.6311 107.9803 0005561 259.5616 100.4764 15.89792852 78884
PolyITAN-2-SAU
1 42732U 98067MM 18284.80064957 .00069049 00000-0 35963-3 0 9997
2 42732 51.6298 115.3594 0005081 253.6265 106.4178 15.80262721 78794
ExAlta-1
1 42734U 98067MP 18284.72409947 .00196930 25802-4 55770-3 0 9991
2 42734 51.6216 106.3395 0005947 278.3193 81.7140 15.92984730 78855
Aoxiang-1
1 42735U 98067MQ 18284.76746733 .00037514 00000-0 28276-3 0 9995
2 42735 51.6339 125.5552 0003335 298.1761 148.6313 15.72111666 80025
BeEagleSat
1 42736U 98067MR 18284.79287650 .00045289 00000-0 30385-3 0 9999
2 42736 51.6318 122.1268 0003689 296.9356 63.1266 15.74748414 78763
CAS-4B
1 42759U 17034B 18284.86777049 .00000360 00000-0 35674-4 0 9991
2 42759 43.0181 162.6698 0008663 120.9075 296.2813 15.09390527 73081
CAS-4A
1 42761U 17034D 18284.84265872 .00000384 00000-0 37093-4 0 9991
2 42761 43.0193 162.5028 0009084 121.0748 291.0181 15.09466975 73071
UCLSat
1 42765U 17036A 18284.11889817 .00001541 00000-0 70172-4 0 9999
2 42765 097.3884 342.0361 0012621 037.1974 323.0134 15.22124320072936
NIUSat
1 42766U 17036B 18284.61702566 .00001234 00000-0 59226-4 0 9996
2 42766 097.3883 341.5430 0016423 022.6775 337.5183 15.20618575072223
LituanicaSAT 2
1 42768U 17036D 18284.73254181 .00002679 00000-0 12067-3 0 9991
2 42768 97.3902 342.1983 0016011 24.1737 336.0247 15.21818329 72286
Aalto 1
1 42775U 17036L 18284.42490068 .00001117 00000-0 53478-4 0 9999
2 42775 97.3874 341.6137 0014724 24.2513 335.9413 15.20934366 72168
URSA MAIOR
1 42776U 17036M 18284.60217260 .00001133 00000-0 54058-4 0 9994
2 42776 097.3881 341.8645 0014547 023.8558 336.3349 15.21030577072198
Max Valier Sat
1 42778U 17036P 18284.72534873 .00001275 00000-0 59584-4 0 9997
2 42778 97.3909 342.4364 0013199 28.8081 331.3881 15.21536260 72224
Pegasus
1 42784U 17036V 18284.43424843 .00001557 00000-0 71276-4 0 9992
2 42784 097.3886 342.2421 0013130 035.9597 324.2520 15.21923432072191
NUDATSat
1 42787U 17036Y 18284.63301392 .00001647 00000-0 73708-4 0 9992
2 42787 097.3920 342.7635 0013488 028.6276 331.5698 15.22610695072084
SUCHAI 1
1 42788U 17036Z 18284.69806986 .00001730 00000-0 78167-4 0 9995
2 42788 97.3887 342.6527 0012692 35.0743 325.1327 15.22236932 72315
SKCUBE
1 42789U 17036AA 18284.43812666 .00001740 00000-0 78733-4 0 9990
2 42789 097.3886 342.3802 0012564 035.9793 324.2286 15.22179355072195
VZLUSAT 1
1 42790U 17036AB 18284.42385182 .00002450 00000-0 10818-3 0 9997
2 42790 097.3891 342.5627 0012141 036.4609 323.7452 15.22629772072207
VENTA 1
1 42791U 17036AC 18284.61356396 .00001551 00000-0 70413-4 0 9993
2 42791 097.3884 342.5987 0012210 036.1974 324.0086 15.22214810072219
Robusta 1B
1 42792U 17036AD 18284.72404793 .00001692 00000-0 76281-4 0 9996
2 42792 97.3884 342.7481 0012138 36.2203 323.9853 15.22336688 72258
D-SAT
1 42794U 17036AF 18284.68914601 .00000483 00000-0 47851-4 0 9995
2 42794 97.5783 334.8634 0125448 254.3050 104.4300 14.90941882 71085
BIRD-J
1 42820U 98067MU 18284.80889977 .00043241 00000-0 30500-3 0 9990
2 42820 51.6320 125.2525 0002909 226.8759 133.1997 15.73608249 72182
BIRD-G
1 42821U 98067MV 18284.59459724 .00039227 00000-0 28878-3 0 9994
2 42821 051.6312 127.5799 0002886 226.3402 133.7357 15.72649342072135
BIRD-M
1 42822U 98067MW 18284.61452451 .00041599 00000-0 29968-3 0 9994
2 42822 051.6319 126.9657 0002859 227.1360 132.9398 15.73131434072147
BIRD-B
1 42823U 98067MX 18284.79031580 .00042369 00000-0 30217-3 0 9995
2 42823 51.6320 125.9138 0004232 255.0545 104.9985 15.73353754 72158
BIRD-N
1 42824U 98067MY 18284.77078715 .00039989 00000-0 28996-3 0 9990
2 42824 51.6331 126.5578 0004082 256.2100 103.8444 15.72992866 72137
TechnoSat
1 42829U 17042E 18284.81290846 .00000261 00000-0 31863-4 0 9994
2 42829 97.5838 182.6951 0014488 165.8119 194.3509 14.90870733 67708
TOMSK-TPU 120
1 42910U 98067MZ 18284.86438862 .00028682 00000-0 25629-3 0 9997
2 42910 51.6348 133.7003 0003784 278.2668 176.7820 15.68142171 65663
TANYUSHA 1
1 42911U 98067NA 18284.81262203 .00035279 00000-0 29214-3 0 9991
2 42911 51.6363 131.8988 0003405 274.9346 175.4902 15.69888576 65662
TANYUSHA 2
1 42912U 98067NB 18284.86968603 .00032527 00000-0 27982-3 0 9997
2 42912 51.6388 133.0112 0003047 283.0405 181.5414 15.69005400 65676
SFERA 2
1 42913U 98067NC 18284.56197151 .00159875 00000-0 58705-3 0 9990
2 42913 051.6302 116.7091 0003842 270.1600 089.8964 15.87299551065867
TNS 0-2
1 42914U 98067ND 18284.58846548 .00025078 00000-0 22670-3 0 9993
2 42914 051.6334 135.8705 0003624 278.1545 081.9041 15.67937719065582
QIKCOM-1
1 42983U 98067NF 18284.79370271 .00004021 00000-0 61320-4 0 9998
2 42983 51.6384 153.1023 0003520 269.8495 90.2093 15.57018726 54388
AO-91
1 43017U 17073E 18284.37514118 .00000653 00000-0 57395-4 0 9993
2 43017 97.7102 210.6855 0257813 253.3296 103.9472 14.78235201 48276
